• In Russia
  • List of Countries
  • For 7 days
  • Water Temperature
  • Satellite Maps
  • Weather Map
  • Weather Widgets
  • user-avatar
    Login

    Hourly Weather Celldomolk

    Today, 16 January, Tuesday

    Time Temperature Precipitation Wind Pressure Humidity
    00:00 -5°C° 0 mm 5 mps 750 mmHg 78%
    01:00 -4°C° 0 mm 4 mps 750 mmHg 75%
    02:00 -5°C° 0 mm 5 mps 749 mmHg 77%
    03:00 -5°C° 0 mm 6 mps 748 mmHg 78%
    04:00 -5°C° 0 mm 6 mps 747 mmHg 79%
    05:00 -5°C° 0 mm 6 mps 746 mmHg 80%
    06:00 -4°C° 0 mm 6 mps 745 mmHg 80%
    07:00 -4°C° 0 mm 5 mps 744 mmHg 81%
    08:00 -4°C° 0.1 mm 5 mps 744 mmHg 81%
    09:00 -2°C° 0.1 mm 5 mps 743 mmHg 81%
    10:00 -1°C° 0.1 mm 4 mps 742 mmHg 81%
    11:00 -1°C° 0.3 mm 4 mps 742 mmHg 81%
    12:00 0°C° 0.3 mm 4 mps 741 mmHg 81%
    13:00 +1°C° 0.3 mm 4 mps 740 mmHg 81%
    14:00 +2°C° 0 mm 3 mps 739 mmHg 82%
    15:00 +2°C° 0 mm 3 mps 739 mmHg 83%
    16:00 +3°C° 0 mm 3 mps 738 mmHg 84%
    17:00 +3°C° 0.1 mm 3 mps 738 mmHg 84%
    18:00 +2°C° 0.1 mm 3 mps 738 mmHg 85%
    19:00 +3°C° 0.1 mm 2 mps 738 mmHg 85%
    20:00 +3°C° 0 mm 2 mps 738 mmHg 85%
    21:00 +2°C° 0 mm 3 mps 738 mmHg 86%
    22:00 +2°C° 0 mm 3 mps 738 mmHg 86%
    23:00 +3°C° 0 mm 2 mps 737 mmHg 87%

    Tomorrow, 17 January, Wednesday

    Time Temperature Precipitation Wind Pressure Humidity
    00:00 +2°C° 0 mm 2 mps 737 mmHg 87%
    01:00 +2°C° 0 mm 2 mps 737 mmHg 88%
    02:00 +2°C° 0.2 mm 2 mps 736 mmHg 88%
    03:00 +2°C° 0.2 mm 2 mps 736 mmHg 89%
    04:00 +2°C° 0.2 mm 2 mps 735 mmHg 90%
    05:00 +3°C° 0.1 mm 1 mps 735 mmHg 90%
    06:00 +3°C° 0.1 mm 1 mps 735 mmHg 90%
    07:00 +3°C° 0.1 mm 1 mps 734 mmHg 89%
    08:00 +4°C° 0.2 mm 1 mps 735 mmHg 87%
    09:00 +3°C° 0.2 mm 2 mps 735 mmHg 84%
    10:00 +4°C° 0.2 mm 2 mps 735 mmHg 81%
    11:00 +3°C° 0.1 mm 3 mps 735 mmHg 77%
    12:00 +4°C° 0.1 mm 3 mps 736 mmHg 72%
    13:00 +4°C° 0.1 mm 4 mps 736 mmHg 68%
    14:00 +4°C° 0 mm 4 mps 737 mmHg 65%
    15:00 +2°C° 0 mm 5 mps 738 mmHg 62%
    16:00 +1°C° 0 mm 5 mps 739 mmHg 59%
    17:00 0°C° 0 mm 5 mps 740 mmHg 60%
    18:00 -1°C° 0 mm 5 mps 741 mmHg 61%
    19:00 -2°C° 0 mm 5 mps 742 mmHg 62%
    20:00 -2°C° 0 mm 5 mps 742 mmHg 63%
    21:00 -2°C° 0 mm 4 mps 743 mmHg 64%
    22:00 -2°C° 0 mm 4 mps 743 mmHg 65%
    23:00 -2°C° 0 mm 4 mps 744 mmHg 64%

    Day after tomorrow, 18 January, Thursday

    Time Temperature Precipitation Wind Pressure Humidity
    00:00 -1°C° 0 mm 5 mps 744 mmHg 64%
    01:00 -2°C° 0 mm 6 mps 744 mmHg 64%
    02:00 -1°C° 0 mm 5 mps 745 mmHg 64%
    03:00 -1°C° 0 mm 5 mps 745 mmHg 64%
    04:00 -1°C° 0 mm 5 mps 745 mmHg 65%
    05:00 -1°C° 0 mm 4 mps 745 mmHg 65%
    06:00 -1°C° 0 mm 4 mps 746 mmHg 65%
    07:00 -1°C° 0 mm 4 mps 746 mmHg 65%
    08:00 0°C° 0 mm 4 mps 746 mmHg 63%
    09:00 +2°C° 0 mm 3 mps 746 mmHg 62%
    10:00 +2°C° 0 mm 3 mps 746 mmHg 60%
    11:00 +1°C° 0.2 mm 4 mps 745 mmHg 59%
    12:00 +3°C° 0.2 mm 4 mps 744 mmHg 58%
    13:00 +2°C° 0.2 mm 5 mps 743 mmHg 58%
    14:00 +2°C° 0 mm 5 mps 743 mmHg 59%
    15:00 +3°C° 0 mm 4 mps 742 mmHg 61%
    16:00 +3°C° 0 mm 4 mps 741 mmHg 62%
    17:00 +2°C° 0.1 mm 5 mps 741 mmHg 63%
    18:00 +2°C° 0.1 mm 5 mps 740 mmHg 64%
    19:00 +2°C° 0.1 mm 5 mps 740 mmHg 65%
    20:00 +2°C° 0.1 mm 6 mps 740 mmHg 66%
    21:00 +2°C° 0.1 mm 6 mps 740 mmHg 68%
    22:00 +2°C° 0.1 mm 6 mps 740 mmHg 69%
    23:00 +2°C° 0.2 mm 5 mps 740 mmHg 72%

    19 January, Friday

    Time Temperature Precipitation Wind Pressure Humidity
    00:00 +3°C° 0.2 mm 4 mps 740 mmHg 75%
    01:00 +3°C° 0.2 mm 3 mps 740 mmHg 78%
    02:00 +3°C° 0.2 mm 3 mps 740 mmHg 80%
    03:00 +4°C° 0.2 mm 2 mps 740 mmHg 81%
    04:00 +3°C° 0.2 mm 2 mps 739 mmHg 83%
    05:00 +4°C° 0.1 mm 1 mps 739 mmHg 84%
    06:00 +4°C° 0.1 mm 1 mps 739 mmHg 84%
    07:00 +3°C° 0.1 mm 0 mps 739 mmHg 84%
    08:00 +4°C° 0 mm 1 mps 740 mmHg 82%
    09:00 +5°C° 0 mm 1 mps 740 mmHg 80%
    10:00 +6°C° 0 mm 1 mps 740 mmHg 78%
    11:00 +7°C° 0.1 mm 1 mps 740 mmHg 78%
    12:00 +7°C° 0.1 mm 1 mps 741 mmHg 77%
    13:00 +7°C° 0.1 mm 1 mps 741 mmHg 77%
    14:00 +7°C° 0.2 mm 1 mps 741 mmHg 78%
    15:00 +7°C° 0.2 mm 1 mps 741 mmHg 79%
    16:00 +6°C° 0.2 mm 1 mps 742 mmHg 81%
    17:00 +5°C° 0.2 mm 2 mps 742 mmHg 80%
    18:00 +4°C° 0.2 mm 2 mps 743 mmHg 78%
    19:00 +4°C° 0.2 mm 2 mps 743 mmHg 77%
    20:00 +4°C° 0.1 mm 2 mps 743 mmHg 77%
    21:00 +3°C° 0.1 mm 2 mps 744 mmHg 78%
    22:00 +3°C° 0.1 mm 2 mps 744 mmHg 79%
    23:00 +3°C° 0.1 mm 2 mps 744 mmHg 80%

    20 January, Saturday

    Time Temperature Precipitation Wind Pressure Humidity
    00:00 +2°C° 0.1 mm 2 mps 744 mmHg 80%
    01:00 +3°C° 0.1 mm 1 mps 744 mmHg 81%
    02:00 +3°C° 0 mm 1 mps 744 mmHg 82%
    03:00 +2°C° 0 mm 2 mps 743 mmHg 83%
    04:00 +2°C° 0 mm 2 mps 743 mmHg 83%
    05:00 +1°C° 0 mm 2 mps 743 mmHg 84%
    06:00 +1°C° 0 mm 2 mps 742 mmHg 84%
    07:00 +1°C° 0 mm 2 mps 742 mmHg 85%
    08:00 +1°C° 0 mm 2 mps 742 mmHg 83%
    09:00 +2°C° 0 mm 2 mps 742 mmHg 82%
    10:00 +2°C° 0 mm 2 mps 742 mmHg 80%
    11:00 +1°C° 0 mm 3 mps 742 mmHg 78%
    12:00 +2°C° 0 mm 3 mps 742 mmHg 77%
    13:00 +1°C° 0 mm 4 mps 742 mmHg 75%
    14:00 +1°C° 0 mm 4 mps 742 mmHg 76%
    15:00 +2°C° 0 mm 3 mps 742 mmHg 78%
    16:00 +1°C° 0 mm 3 mps 742 mmHg 79%
    17:00 0°C° 0 mm 4 mps 742 mmHg 79%
    18:00 0°C° 0 mm 4 mps 742 mmHg 80%
    19:00 0°C° 0 mm 4 mps 742 mmHg 80%
    20:00 0°C° 0 mm 5 mps 742 mmHg 79%
    21:00 -1°C° 0 mm 6 mps 742 mmHg 78%
    22:00 -1°C° 0 mm 6 mps 742 mmHg 77%
    23:00 -2°C° 0 mm 7 mps 742 mmHg 77%

    21 January, Sunday

    Time Temperature Precipitation Wind Pressure Humidity
    00:00 -2°C° 0 mm 8 mps 741 mmHg 76%
    01:00 -2°C° 0 mm 8 mps 741 mmHg 76%
    02:00 -3°C° 0 mm 9 mps 741 mmHg 75%
    03:00 -3°C° 0 mm 10 mps 741 mmHg 75%
    04:00 -3°C° 0 mm 10 mps 741 mmHg 74%
    05:00 -3°C° 0 mm 10 mps 741 mmHg 74%
    06:00 -3°C° 0 mm 10 mps 741 mmHg 73%
    07:00 -4°C° 0 mm 11 mps 741 mmHg 72%
    08:00 -3°C° 0 mm 11 mps 741 mmHg 71%
    09:00 -3°C° 0 mm 11 mps 741 mmHg 69%
    10:00 -3°C° 0 mm 12 mps 741 mmHg 68%
    11:00 -3°C° 0 mm 12 mps 741 mmHg 66%
    12:00 -2°C° 0 mm 12 mps 741 mmHg 64%
    13:00 -2°C° 0 mm 12 mps 741 mmHg 63%
    14:00 -2°C° 0 mm 12 mps 741 mmHg 63%
    15:00 -3°C° 0 mm 12 mps 742 mmHg 63%
    16:00 -3°C° 0 mm 11 mps 742 mmHg 62%
    17:00 -3°C° 0 mm 11 mps 743 mmHg 63%
    18:00 -4°C° 0 mm 11 mps 743 mmHg 65%
    19:00 -4°C° 0 mm 11 mps 744 mmHg 66%
    20:00 -4°C° 0 mm 10 mps 744 mmHg 65%
    21:00 -4°C° 0 mm 10 mps 745 mmHg 64%
    22:00 -4°C° 0 mm 10 mps 745 mmHg 63%
    23:00 -4°C° 0 mm 10 mps 745 mmHg 63%
    Show more